| time (UTC) | temp C | wind direction | speed KPH | gust KPH | rain 1hr cm | rain 24hr cm | rain mn cm | humidity % | barometer mb |
| 20260506214334 | 20 | 37 | 1.6 | 8.0 | 0.00 | 0.00 | 0.00 | 60 | 1027.7 |
| 20260506213933 | 21 | 343 | 1.6 | 6.4 | 0.00 | 0.00 | 0.00 | 59 | 1027.8 |
| 20260506213532 | 21 | 133 | 4.8 | 6.4 | 0.00 | 0.00 | 0.00 | 59 | 1027.8 |
| 20260506213131 | 21 | 4 | 6.4 | 8.0 | 0.00 | 0.00 | 0.00 | 59 | 1027.9 |
| 20260506212730 | 21 | 75 | 1.6 | 14.5 | 0.00 | 0.00 | 0.00 | 59 | 1027.9 |
| 20260506212329 | 22 | 53 | 14.5 | 14.5 | 0.00 | 0.00 | 0.00 | 59 | 1027.8 |
| 20260506211928 | 22 | 303 | 3.2 | 6.4 | 0.00 | 0.00 | 0.00 | 59 | 1027.9 |
| 20260506211527 | 22 | 185 | 1.6 | 11.3 | 0.00 | 0.00 | 0.00 | 59 | 1027.9 |
| 20260506211126 | 22 | 328 | 4.8 | 9.7 | 0.00 | 0.00 | 0.00 | 59 | 1028.0 |
| 20260506210725 | 22 | 267 | 1.6 | 8.0 | 0.00 | 0.00 | 0.00 | 59 | 1028.0 |
| 20260506210324 | 22 | 41 | 1.6 | 4.8 | 0.00 | 0.00 | 0.00 | 59 | 1028.0 |
| 20260506205923 | 22 | 51 | 1.6 | 4.8 | 0.00 | 0.00 | 0.00 | 60 | 1028.0 |
| 20260506205522 | 22 | 292 | 1.6 | 6.4 | 0.00 | 0.00 | 0.00 | 60 | 1028.0 |
| 20260506205121 | 22 | 218 | 1.6 | 4.8 | 0.00 | 0.00 | 0.00 | 60 | 1028.0 |
| 20260506204720 | 22 | 251 | 1.6 | 4.8 | 0.00 | 0.00 | 0.00 | 61 | 1027.9 |
| 20260506204319 | 21 | 256 | 1.6 | 3.2 | 0.00 | 0.00 | 0.00 | 61 | 1027.9 |
| 20260506203919 | 21 | 299 | 1.6 | 4.8 | 0.00 | 0.00 | 0.00 | 60 | 1027.9 |
| 20260506203518 | 21 | 238 | 3.2 | 4.8 | 0.00 | 0.00 | 0.00 | 60 | 1028.0 |
| 20260506203117 | 21 | 240 | 3.2 | 4.8 | 0.00 | 0.00 | 0.00 | 60 | 1027.9 |
| 20260506202716 | 21 | 356 | 1.6 | 4.8 | 0.00 | 0.00 | 0.00 | 60 | 1027.9 |
| 20260506202315 | 21 | 4 | 1.6 | 6.4 | 0.00 | 0.00 | 0.00 | 60 | 1027.9 |
| 20260506201914 | 21 | 4 | 3.2 | 6.4 | 0.00 | 0.00 | 0.00 | 60 | 1027.9 |
| 20260506201513 | 21 | 346 | 0.0 | 4.8 | 0.00 | 0.00 | 0.00 | 60 | 1027.9 |
| 20260506201112 | 21 | 324 | 0.0 | 6.4 | 0.00 | 0.00 | 0.00 | 60 | 1027.9 |
| 20260506200711 | 20 | 36 | 1.6 | 3.2 | 0.00 | 0.00 | 0.00 | 61 | 1028.0 |
| 20260506200310 | 20 | 21 | 0.0 | 4.8 | 0.00 | 0.00 | 0.00 | 61 | 1028.0 |
| 20260506195909 | 20 | 32 | 1.6 | 3.2 | 0.00 | 0.00 | 0.00 | 61 | 1028.0 |
| 20260506195508 | 20 | 66 | 1.6 | 4.8 | 0.00 | 0.00 | 0.00 | 61 | 1028.0 |
| 20260506195107 | 20 | 8 | 3.2 | 4.8 | 0.00 | 0.00 | 0.00 | 61 | 1028.0 |
| 20260506194707 | 20 | 355 | 1.6 | 4.8 | 0.00 | 0.00 | 0.00 | 61 | 1028.0 |
| 20260506194306 | 20 | 19 | 3.2 | 6.4 | 0.00 | 0.00 | 0.00 | 61 | 1028.0 |
| 20260506193905 | 20 | 8 | 0.0 | 4.8 | 0.00 | 0.00 | 0.00 | 62 | 1028.1 |
| 20260506193504 | 20 | 12 | 1.6 | 4.8 | 0.00 | 0.00 | 0.00 | 62 | 1028.1 |
| 20260506193103 | 19 | 15 | 0.0 | 8.0 | 0.00 | 0.00 | 0.00 | 62 | 1028.1 |
| 20260506192702 | 19 | 30 | 3.2 | 6.4 | 0.00 | 0.00 | 0.00 | 62 | 1028.2 |
| 20260506192301 | 19 | 12 | 3.2 | 4.8 | 0.00 | 0.00 | 0.00 | 62 | 1028.2 |
| 20260506191900 | 18 | 1 | 1.6 | 8.0 | 0.00 | 0.00 | 0.00 | 63 | 1028.1 |
| 20260506191459 | 18 | 53 | 4.8 | 4.8 | 0.00 | 0.00 | 0.00 | 63 | 1028.1 |
| 20260506191058 | 18 | 322 | 1.6 | 4.8 | 0.00 | 0.00 | 0.00 | 63 | 1028.1 |
| 20260506190657 | 18 | 40 | 4.8 | 8.0 | 0.00 | 0.00 | 0.00 | 62 | 1028.2 |
| 20260506190256 | 18 | 5 | 1.6 | 6.4 | 0.00 | 0.00 | 0.00 | 63 | 1028.2 |
| 20260506185855 | 18 | 321 | 3.2 | 6.4 | 0.00 | 0.00 | 0.00 | 63 | 1028.2 |
| 20260506185454 | 18 | 43 | 3.2 | 6.4 | 0.00 | 0.00 | 0.00 | 63 | 1028.1 |
| 20260506185053 | 18 | 2 | 4.8 | 6.4 | 0.00 | 0.00 | 0.00 | 63 | 1028.2 |
| 20260506184653 | 18 | 329 | 3.2 | 6.4 | 0.00 | 0.00 | 0.00 | 64 | 1028.2 |
| 20260506184252 | 18 | 353 | 3.2 | 8.0 | 0.00 | 0.00 | 0.00 | 63 | 1028.2 |
| 20260506183851 | 18 | 355 | 6.4 | 8.0 | 0.00 | 0.00 | 0.00 | 64 | 1028.2 |
| 20260506183450 | 18 | 3 | 8.0 | 8.0 | 0.00 | 0.00 | 0.00 | 64 | 1028.3 |
| 20260506183049 | 18 | 354 | 1.6 | 8.0 | 0.00 | 0.00 | 0.00 | 64 | 1028.3 |
| 20260506182648 | 18 | 7 | 4.8 | 6.4 | 0.00 | 0.00 | 0.00 | 64 | 1028.2 |
| 20260506182247 | 18 | 40 | 4.8 | 6.4 | 0.00 | 0.00 | 0.00 | 65 | 1028.3 |
| 20260506181846 | 18 | 351 | 1.6 | 4.8 | 0.00 | 0.00 | 0.00 | 65 | 1028.3 |
| 20260506181445 | 18 | 353 | 1.6 | 6.4 | 0.00 | 0.00 | 0.00 | 65 | 1028.4 |
| 20260506181044 | 18 | 343 | 4.8 | 9.7 | 0.00 | 0.00 | 0.00 | 66 | 1028.3 |
| 20260506180644 | 17 | 12 | 3.2 | 6.4 | 0.00 | 0.00 | 0.00 | 66 | 1028.4 |
| 20260506180243 | 17 | 351 | 1.6 | 4.8 | 0.00 | 0.00 | 0.00 | 66 | 1028.5 |
| 20260506175842 | 17 | 5 | 0.0 | 6.4 | 0.00 | 0.00 | 0.00 | 66 | 1028.3 |
| 20260506175441 | 17 | 11 | 4.8 | 6.4 | 0.00 | 0.00 | 0.00 | 66 | 1028.3 |
| 20260506175040 | 17 | 354 | 1.6 | 6.4 | 0.00 | 0.00 | 0.00 | 67 | 1028.2 |
| 20260506174639 | 17 | 343 | 3.2 | 6.4 | 0.00 | 0.00 | 0.00 | 67 | 1028.3 |
| 20260506174238 | 17 | 0 | 3.2 | 6.4 | 0.00 | 0.00 | 0.00 | 67 | 1028.2 |
| 20260506173837 | 17 | 358 | 3.2 | 8.0 | 0.00 | 0.00 | 0.00 | 67 | 1028.1 |
| 20260506173436 | 17 | 1 | 3.2 | 6.4 | 0.00 | 0.00 | 0.00 | 68 | 1028.2 |
| 20260506173035 | 16 | 107 | 0.0 | 0.0 | 0.00 | 0.00 | 0.00 | 68 | 1028.2 |
| 20260506172640 | 16 | 11 | 3.2 | 4.8 | 0.00 | 0.00 | 0.00 | 68 | 1028.1 |
| 20260506172239 | 16 | 358 | 4.8 | 6.4 | 0.00 | 0.00 | 0.00 | 68 | 1028.1 |
| 20260506171838 | 16 | 19 | 1.6 | 6.4 | 0.00 | 0.00 | 0.00 | 68 | 1028.1 |
| 20260506171437 | 16 | 338 | 4.8 | 6.4 | 0.00 | 0.00 | 0.00 | 68 | 1028.1 |
| 20260506171036 | 16 | 5 | 1.6 | 4.8 | 0.00 | 0.00 | 0.00 | 68 | 1028.1 |
| 20260506170635 | 16 | 356 | 3.2 | 4.8 | 0.00 | 0.00 | 0.00 | 68 | 1028.1 |
| 20260506170234 | 15 | 13 | 1.6 | 8.0 | 0.00 | 0.00 | 0.00 | 68 | 1028.1 |
| 20260506165833 | 15 | 22 | 8.0 | 8.0 | 0.00 | 0.00 | 0.00 | 68 | 1028.1 |
| 20260506165432 | 15 | 359 | 1.6 | 11.3 | 0.00 | 0.00 | 0.00 | 68 | 1028.0 |
| 20260506165031 | 15 | 40 | 8.0 | 11.3 | 0.00 | 0.00 | 0.00 | 68 | 1027.9 |
| 20260506164631 | 15 | 22 | 4.8 | 8.0 | 0.00 | 0.00 | 0.00 | 69 | 1027.8 |
| 20260506164230 | 15 | 358 | 1.6 | 4.8 | 0.00 | 0.00 | 0.00 | 69 | 1027.9 |
| 20260506163829 | 15 | 351 | 3.2 | 4.8 | 0.00 | 0.00 | 0.00 | 69 | 1027.8 |
| 20260506163428 | 15 | 348 | 3.2 | 4.8 | 0.00 | 0.00 | 0.00 | 70 | 1027.8 |
| 20260506163027 | 14 | 320 | 3.2 | 6.4 | 0.00 | 0.00 | 0.00 | 70 | 1027.9 |
| 20260506162626 | 14 | 340 | 3.2 | 8.0 | 0.00 | 0.00 | 0.00 | 70 | 1027.9 |
| 20260506162225 | 14 | 8 | 4.8 | 8.0 | 0.00 | 0.00 | 0.00 | 70 | 1027.8 |
| 20260506161824 | 14 | 359 | 3.2 | 8.0 | 0.00 | 0.00 | 0.00 | 70 | 1027.9 |
| 20260506161423 | 14 | 356 | 1.6 | 9.7 | 0.00 | 0.00 | 0.00 | 71 | 1027.9 |
| 20260506161022 | 14 | 345 | 4.8 | 8.0 | 0.00 | 0.00 | 0.00 | 73 | 1027.9 |
| 20260506160621 | 14 | 5 | 1.6 | 4.8 | 0.00 | 0.00 | 0.00 | 73 | 1027.9 |
| 20260506160220 | 13 | 10 | 3.2 | 4.8 | 0.00 | 0.00 | 0.00 | 74 | 1027.9 |
| 20260506155820 | 13 | 353 | 3.2 | 6.4 | 0.00 | 0.00 | 0.00 | 74 | 1027.9 |
| 20260506155419 | 13 | 5 | 4.8 | 6.4 | 0.00 | 0.00 | 0.00 | 74 | 1027.9 |
| 20260506155018 | 13 | 330 | 3.2 | 4.8 | 0.00 | 0.00 | 0.00 | 75 | 1028.0 |
| 20260506154617 | 12 | 0 | 3.2 | 8.0 | 0.00 | 0.00 | 0.00 | 75 | 1027.9 |
| 20260506154216 | 12 | 5 | 1.6 | 6.4 | 0.00 | 0.00 | 0.00 | 75 | 1027.9 |
| 20260506153815 | 12 | 336 | 3.2 | 8.0 | 0.00 | 0.00 | 0.00 | 75 | 1027.8 |
| 20260506153414 | 12 | 297 | 4.8 | 8.0 | 0.00 | 0.00 | 0.00 | 74 | 1027.7 |
| 20260506153013 | 12 | 315 | 3.2 | 8.0 | 0.00 | 0.00 | 0.00 | 75 | 1027.7 |
| 20260506152612 | 12 | 0 | 6.4 | 8.0 | 0.00 | 0.00 | 0.00 | 75 | 1027.6 |
| 20260506152211 | 12 | 328 | 4.8 | 9.7 | 0.00 | 0.00 | 0.00 | 75 | 1027.6 |
| 20260506151810 | 12 | 338 | 1.6 | 8.0 | 0.00 | 0.00 | 0.00 | 76 | 1027.7 |
| 20260506151409 | 12 | 352 | 4.8 | 9.7 | 0.00 | 0.00 | 0.00 | 77 | 1027.7 |
| 20260506151008 | 12 | 348 | 4.8 | 8.0 | 0.00 | 0.00 | 0.00 | 77 | 1027.7 |
| 20260506150607 | 12 | 357 | 4.8 | 8.0 | 0.00 | 0.00 | 0.00 | 78 | 1027.7 |
| 20260506150206 | 11 | 309 | 4.8 | 6.4 | 0.00 | 0.00 | 0.00 | 79 | 1027.8 |
| 20260506145805 | 11 | 4 | 1.6 | 4.8 | 0.00 | 0.00 | 0.00 | 79 | 1027.7 |
| 20260506145405 | 11 | 0 | 3.2 | 9.7 | 0.00 | 0.00 | 0.00 | 78 | 1027.6 |
| 20260506145004 | 11 | 325 | 3.2 | 6.4 | 0.00 | 0.00 | 0.00 | 79 | 1027.6 |
| 20260506144603 | 11 | 0 | 1.6 | 6.4 | 0.00 | 0.00 | 0.00 | 80 | 1027.8 |
| 20260506144202 | 11 | 346 | 1.6 | 6.4 | 0.00 | 0.00 | 0.00 | 80 | 1027.6 |
| 20260506143801 | 11 | 356 | 1.6 | 3.2 | 0.00 | 0.00 | 0.00 | 81 | 1027.6 |
| 20260506143400 | 11 | 358 | 3.2 | 4.8 | 0.00 | 0.00 | 0.00 | 81 | 1027.7 |
| 20260506142959 | 11 | 357 | 0.0 | 6.4 | 0.00 | 0.00 | 0.00 | 82 | 1027.7 |
| 20260506142558 | 11 | 346 | 3.2 | 6.4 | 0.00 | 0.00 | 0.00 | 83 | 1027.6 |
| 20260506142157 | 10 | 324 | 1.6 | 3.2 | 0.00 | 0.00 | 0.00 | 84 | 1027.7 |
| 20260506141756 | 10 | 317 | 1.6 | 1.6 | 0.00 | 0.00 | 0.00 | 84 | 1027.6 |
| 20260506141355 | 10 | 342 | 0.0 | 4.8 | 0.00 | 0.00 | 0.00 | 85 | 1027.7 |
| 20260506140954 | 10 | 346 | 0.0 | 4.8 | 0.00 | 0.00 | 0.00 | 85 | 1027.7 |
| 20260506140554 | 9 | 356 | 0.0 | 4.8 | 0.00 | 0.00 | 0.00 | 85 | 1027.7 |
| 20260506140153 | 9 | 10 | 1.6 | 8.0 | 0.00 | 0.00 | 0.00 | 85 | 1027.5 |
| 20260506135752 | 8 | 320 | 4.8 | 4.8 | 0.00 | 0.00 | 0.00 | 86 | 1027.5 |
| 20260506135351 | 8 | 341 | 1.6 | 6.4 | 0.00 | 0.00 | 0.00 | 86 | 1027.5 |
| 20260506134950 | 8 | 325 | 3.2 | 6.4 | 0.00 | 0.00 | 0.00 | 86 | 1027.3 |
| 20260506134549 | 8 | 321 | 1.6 | 6.4 | 0.00 | 0.00 | 0.00 | 86 | 1027.4 |
| 20260506134148 | 8 | 339 | 1.6 | 3.2 | 0.00 | 0.00 | 0.00 | 86 | 1027.3 |
| 20260506133747 | 7 | 327 | 0.0 | 3.2 | 0.00 | 0.00 | 0.00 | 86 | 1027.3 |
| 20260506133346 | 7 | 349 | 1.6 | 4.8 | 0.00 | 0.00 | 0.00 | 86 | 1027.4 |
| 20260506132945 | 7 | 323 | 0.0 | 4.8 | 0.00 | 0.00 | 0.00 | 86 | 1027.3 |
| 20260506132544 | 7 | 304 | 1.6 | 4.8 | 0.00 | 0.00 | 0.00 | 86 | 1027.3 |
| 20260506132143 | 7 | 312 | 1.6 | 3.2 | 0.00 | 0.00 | 0.00 | 86 | 1027.2 |
| 20260506131744 | 7 | 308 | 1.6 | 6.4 | 0.00 | 0.00 | 0.00 | 86 | 1027.3 |
| 20260506131341 | 7 | 337 | 1.6 | 8.0 | 0.00 | 0.00 | 0.00 | 86 | 1027.1 |
| 20260506130940 | 7 | 354 | 4.8 | 4.8 | 0.00 | 0.00 | 0.00 | 86 | 1027.1 |
| 20260506130539 | 7 | 347 | 3.2 | 4.8 | 0.00 | 0.00 | 0.00 | 86 | 1027.2 |
| 20260506130139 | 7 | 337 | 1.6 | 3.2 | 0.00 | 0.00 | 0.00 | 86 | 1027.2 |
| 20260506125738 | 7 | 330 | 3.2 | 6.4 | 0.00 | 0.00 | 0.00 | 86 | 1027.1 |
| 20260506125337 | 7 | 346 | 6.4 | 9.7 | 0.00 | 0.00 | 0.00 | 86 | 1027.0 |
| 20260506124936 | 7 | 341 | 4.8 | 6.4 | 0.00 | 0.00 | 0.00 | 86 | 1027.1 |
| 20260506124535 | 7 | 329 | 3.2 | 8.0 | 0.00 | 0.00 | 0.00 | 86 | 1027.1 |
| 20260506124134 | 7 | 330 | 3.2 | 8.0 | 0.00 | 0.00 | 0.00 | 86 | 1027.0 |
| 20260506123733 | 7 | 279 | 3.2 | 6.4 | 0.00 | 0.00 | 0.00 | 86 | 1027.0 |
| 20260506123332 | 7 | 337 | 3.2 | 9.7 | 0.00 | 0.00 | 0.00 | 86 | 1026.9 |
| 20260506122931 | 7 | 308 | 4.8 | 11.3 | 0.00 | 0.00 | 0.00 | 86 | 1026.9 |
| 20260506122530 | 7 | 322 | 6.4 | 9.7 | 0.00 | 0.00 | 0.00 | 86 | 1027.0 |
| 20260506122129 | 7 | 344 | 8.0 | 9.7 | 0.00 | 0.00 | 0.00 | 85 | 1027.0 |
| 20260506121728 | 7 | 12 | 3.2 | 6.4 | 0.00 | 0.00 | 0.00 | 85 | 1027.0 |
| 20260506121327 | 7 | 322 | 1.6 | 4.8 | 0.00 | 0.00 | 0.00 | 85 | 1027.0 |
| 20260506120927 | 7 | 310 | 3.2 | 4.8 | 0.00 | 0.00 | 0.00 | 85 | 1026.9 |
| 20260506120527 | 7 | 348 | 1.6 | 4.8 | 0.00 | 0.00 | 0.00 | 85 | 1027.0 |
| 20260506120125 | 7 | 352 | 1.6 | 4.8 | 0.00 | 0.00 | 0.00 | 85 | 1027.0 |
| 20260506115724 | 7 | 323 | 3.2 | 6.4 | 0.00 | 0.00 | 0.00 | 85 | 1027.0 |
| 20260506115323 | 7 | 297 | 1.6 | 6.4 | 0.00 | 0.00 | 0.00 | 85 | 1027.0 |
| 20260506114922 | 7 | 350 | 1.6 | 3.2 | 0.00 | 0.00 | 0.00 | 85 | 1026.9 |
| 20260506114521 | 7 | 40 | 1.6 | 4.8 | 0.00 | 0.00 | 0.00 | 85 | 1027.0 |
| 20260506114120 | 7 | 265 | 3.2 | 4.8 | 0.00 | 0.00 | 0.00 | 85 | 1026.9 |
| 20260506113719 | 7 | 326 | 4.8 | 4.8 | 0.00 | 0.00 | 0.00 | 85 | 1026.9 |
| 20260506113318 | 7 | 280 | 4.8 | 4.8 | 0.00 | 0.00 | 0.00 | 85 | 1026.9 |
| 20260506112917 | 7 | 302 | 3.2 | 4.8 | 0.00 | 0.00 | 0.00 | 85 | 1026.9 |
| 20260506112516 | 7 | 286 | 3.2 | 3.2 | 0.00 | 0.00 | 0.00 | 85 | 1026.9 |
| 20260506112115 | 7 | 297 | 1.6 | 3.2 | 0.00 | 0.00 | 0.00 | 85 | 1026.9 |
| 20260506111716 | 7 | 322 | 3.2 | 6.4 | 0.00 | 0.00 | 0.00 | 85 | 1026.9 |
| 20260506111313 | 7 | 324 | 3.2 | 6.4 | 0.00 | 0.00 | 0.00 | 85 | 1026.8 |
| 20260506110913 | 7 | 263 | 1.6 | 6.4 | 0.00 | 0.00 | 0.00 | 85 | 1026.8 |
| 20260506110512 | 7 | 328 | 3.2 | 8.0 | 0.00 | 0.00 | 0.00 | 85 | 1026.8 |
| 20260506110111 | 7 | 322 | 8.0 | 8.0 | 0.00 | 0.00 | 0.00 | 85 | 1026.7 |
| 20260506105710 | 7 | 347 | 4.8 | 8.0 | 0.00 | 0.00 | 0.00 | 85 | 1026.7 |
| 20260506105309 | 7 | 350 | 6.4 | 11.3 | 0.00 | 0.00 | 0.00 | 85 | 1026.7 |
| 20260506104908 | 7 | 356 | 9.7 | 14.5 | 0.00 | 0.00 | 0.00 | 85 | 1026.7 |
| 20260506104507 | 7 | 0 | 9.7 | 11.3 | 0.00 | 0.00 | 0.00 | 85 | 1026.6 |
| 20260506104106 | 7 | 338 | 3.2 | 4.8 | 0.00 | 0.00 | 0.00 | 85 | 1026.8 |
| 20260506103705 | 7 | 349 | 4.8 | 6.4 | 0.00 | 0.00 | 0.00 | 85 | 1026.8 |
| 20260506103304 | 7 | 345 | 4.8 | 9.7 | 0.00 | 0.00 | 0.00 | 85 | 1026.7 |
| 20260506102903 | 7 | 357 | 4.8 | 8.0 | 0.00 | 0.00 | 0.00 | 85 | 1026.6 |
| 20260506102502 | 7 | 349 | 4.8 | 6.4 | 0.00 | 0.00 | 0.00 | 85 | 1026.6 |
| 20260506102101 | 7 | 349 | 3.2 | 4.8 | 0.00 | 0.00 | 0.00 | 85 | 1026.7 |
| 20260506101701 | 7 | 324 | 3.2 | 8.0 | 0.00 | 0.00 | 0.00 | 85 | 1026.7 |
| 20260506101300 | 7 | 351 | 3.2 | 8.0 | 0.00 | 0.00 | 0.00 | 85 | 1026.7 |
| 20260506100859 | 7 | 350 | 3.2 | 6.4 | 0.00 | 0.00 | 0.00 | 85 | 1026.7 |
| 20260506100458 | 7 | 347 | 3.2 | 6.4 | 0.00 | 0.00 | 0.00 | 85 | 1026.8 |
| 20260506100057 | 7 | 331 | 4.8 | 6.4 | 0.00 | 0.00 | 0.00 | 84 | 1026.7 |
| 20260506095656 | 7 | 319 | 3.2 | 8.0 | 0.00 | 0.00 | 0.00 | 84 | 1026.7 |
| 20260506095255 | 7 | 326 | 1.6 | 8.0 | 0.00 | 0.00 | 0.00 | 84 | 1026.7 |
| 20260506094854 | 7 | 331 | 3.2 | 4.8 | 0.00 | 0.00 | 0.00 | 84 | 1026.6 |
| 20260506094453 | 7 | 325 | 4.8 | 8.0 | 0.00 | 0.00 | 0.00 | 84 | 1026.7 |
| 20260506094052 | 7 | 348 | 4.8 | 8.0 | 0.00 | 0.00 | 0.00 | 84 | 1026.7 |
| 20260506093651 | 7 | 353 | 4.8 | 12.9 | 0.00 | 0.00 | 0.00 | 84 | 1026.7 |
| 20260506093250 | 7 | 342 | 6.4 | 12.9 | 0.00 | 0.00 | 0.00 | 84 | 1026.7 |
| 20260506092850 | 7 | 2 | 8.0 | 11.3 | 0.00 | 0.00 | 0.00 | 84 | 1026.7 |
| 20260506092449 | 7 | 347 | 9.7 | 9.7 | 0.00 | 0.00 | 0.00 | 84 | 1026.8 |
| 20260506092047 | 7 | 351 | 8.0 | 8.0 | 0.00 | 0.00 | 0.00 | 84 | 1026.8 |
| 20260506091647 | 7 | 51 | 3.2 | 11.3 | 0.00 | 0.00 | 0.00 | 84 | 1026.8 |
| 20260506091246 | 7 | 348 | 6.4 | 9.7 | 0.00 | 0.00 | 0.00 | 85 | 1026.8 |
| 20260506090845 | 7 | 350 | 6.4 | 12.9 | 0.00 | 0.00 | 0.00 | 85 | 1026.7 |
| 20260506090444 | 7 | 350 | 12.9 | 12.9 | 0.00 | 0.00 | 0.00 | 85 | 1026.8 |
| 20260506090043 | 7 | 326 | 6.4 | 11.3 | 0.00 | 0.00 | 0.00 | 85 | 1026.8 |
| 20260506085645 | 7 | 312 | 1.6 | 11.3 | 0.00 | 0.00 | 0.00 | 85 | 1026.8 |
| 20260506085642 | 7 | 312 | 1.6 | 11.3 | 0.00 | 0.00 | 0.00 | 85 | 1026.8 |
| 20260506085241 | 7 | 339 | 8.0 | 9.7 | 0.00 | 0.00 | 0.00 | 85 | 1026.8 |
| 20260506084840 | 7 | 26 | 1.6 | 12.9 | 0.00 | 0.00 | 0.00 | 85 | 1026.9 |
| 20260506084439 | 7 | 221 | 1.6 | 6.4 | 0.00 | 0.00 | 0.00 | 85 | 1027.0 |
| 20260506084038 | 7 | 156 | 1.6 | 6.4 | 0.00 | 0.00 | 0.00 | 85 | 1027.0 |
| 20260506083637 | 7 | 312 | 6.4 | 6.4 | 0.00 | 0.00 | 0.00 | 85 | 1026.9 |
| 20260506083236 | 7 | 90 | 3.2 | 9.7 | 0.00 | 0.00 | 0.00 | 85 | 1026.9 |
| 20260506082835 | 7 | 290 | 3.2 | 6.4 | 0.00 | 0.00 | 0.00 | 85 | 1027.0 |
| 20260506082435 | 7 | 279 | 1.6 | 8.0 | 0.00 | 0.00 | 0.00 | 85 | 1026.9 |
| 20260506082034 | 7 | 321 | 4.8 | 4.8 | 0.00 | 0.00 | 0.00 | 85 | 1027.0 |
| 20260506081633 | 7 | 295 | 3.2 | 6.4 | 0.00 | 0.00 | 0.00 | 85 | 1027.0 |
| 20260506081232 | 7 | 289 | 1.6 | 8.0 | 0.00 | 0.00 | 0.00 | 85 | 1027.0 |
| 20260506080831 | 7 | 324 | 3.2 | 8.0 | 0.00 | 0.00 | 0.00 | 85 | 1026.9 |
| 20260506080654 | 7 | 299 | 1.6 | 6.4 | 0.00 | 0.00 | 0.00 | 85 | 1026.9 |
| 20260506080430 | 7 | 299 | 1.6 | 6.4 | 0.00 | 0.00 | 0.00 | 85 | 1026.9 |
| 20260506073223 | 7 | 288 | 8.0 | 12.9 | 0.00 | 0.00 | 0.00 | 86 | 1026.9 |
| 20260506072822 | 7 | 334 | 11.3 | 14.5 | 0.00 | 0.00 | 0.00 | 86 | 1026.8 |
| 20260506072421 | 7 | 349 | 8.0 | 11.3 | 0.00 | 0.00 | 0.00 | 87 | 1026.8 |
| 20260506072020 | 7 | 351 | 4.8 | 9.7 | 0.00 | 0.00 | 0.00 | 87 | 1026.9 |
| 20260506071622 | 7 | 346 | 6.4 | 9.7 | 0.00 | 0.00 | 0.00 | 88 | 1026.8 |
| 20260506071619 | 7 | 346 | 6.4 | 9.7 | 0.00 | 0.00 | 0.00 | 88 | 1026.8 |
| 20260506071218 | 7 | 319 | 4.8 | 11.3 | 0.00 | 0.00 | 0.00 | 88 | 1026.7 |
| 20260506070817 | 7 | 301 | 6.4 | 11.3 | 0.00 | 0.00 | 0.00 | 88 | 1026.7 |
| 20260506070416 | 7 | 320 | 1.6 | 11.3 | 0.00 | 0.00 | 0.00 | 88 | 1026.7 |
| 20260506062407 | 7 | 41 | 3.2 | 14.5 | 0.00 | 0.00 | 0.00 | 90 | 1026.4 |
| 20260506062006 | 7 | 2 | 4.8 | 14.5 | 0.00 | 0.00 | 0.00 | 90 | 1026.4 |
| 20260506061605 | 7 | 313 | 6.4 | 9.7 | 0.00 | 0.00 | 0.00 | 90 | 1026.4 |
| 20260506061204 | 7 | 314 | 6.4 | 9.7 | 0.00 | 0.00 | 0.00 | 90 | 1026.5 |
| 20260506060803 | 7 | 140 | 3.2 | 6.4 | 0.00 | 0.00 | 0.00 | 90 | 1026.4 |
| 20260506060402 | 7 | 273 | 3.2 | 8.0 | 0.00 | 0.00 | 0.00 | 90 | 1026.4 |
| 20260506051150 | 7 | 335 | 4.8 | 9.7 | 0.00 | 0.00 | 0.00 | 91 | 1026.1 |
| 20260506050749 | 7 | 317 | 1.6 | 8.0 | 0.00 | 0.00 | 0.00 | 91 | 1026.1 |
| 20260506050348 | 7 | 351 | 1.6 | 8.0 | 0.00 | 0.00 | 0.00 | 91 | 1026.1 |
| 20260506044744 | 7 | 248 | 1.6 | 6.4 | 0.00 | 0.00 | 0.00 | 90 | 1025.9 |
| 20260506044343 | 7 | 356 | 4.8 | 4.8 | 0.00 | 0.00 | 0.00 | 90 | 1026.0 |
| 20260506043943 | 7 | 306 | 0.0 | 8.0 | 0.00 | 0.00 | 0.00 | 89 | 1026.0 |
| 20260506043542 | 7 | 351 | 3.2 | 8.0 | 0.00 | 0.00 | 0.00 | 89 | 1025.9 |
| 20260506043141 | 7 | 349 | 4.8 | 8.0 | 0.00 | 0.00 | 0.00 | 89 | 1025.9 |
| 20260506042740 | 7 | 324 | 4.8 | 6.4 | 0.00 | 0.00 | 0.00 | 89 | 1025.8 |
| 20260506042339 | 7 | 352 | 6.4 | 6.4 | 0.00 | 0.00 | 0.00 | 89 | 1025.8 |
| 20260506041938 | 7 | 320 | 3.2 | 3.2 | 0.00 | 0.00 | 0.00 | 88 | 1025.7 |
| 20260506041537 | 7 | 339 | 1.6 | 9.7 | 0.00 | 0.00 | 0.00 | 88 | 1025.8 |
| 20260506041136 | 7 | 353 | 8.0 | 9.7 | 0.00 | 0.00 | 0.00 | 88 | 1025.8 |
| 20260506040735 | 7 | 309 | 4.8 | 8.0 | 0.00 | 0.00 | 0.00 | 88 | 1025.7 |
| 20260506040334 | 7 | 323 | 4.8 | 8.0 | 0.00 | 0.00 | 0.00 | 87 | 1025.6 |
| 20260506035933 | 7 | 352 | 4.8 | 14.5 | 0.00 | 0.00 | 0.00 | 87 | 1025.5 |
| 20260506035532 | 7 | 339 | 8.0 | 11.3 | 0.00 | 0.00 | 0.00 | 86 | 1025.5 |
| 20260506035131 | 7 | 341 | 4.8 | 6.4 | 0.00 | 0.00 | 0.00 | 85 | 1025.4 |
| 20260506034731 | 7 | 84 | 1.6 | 6.4 | 0.00 | 0.00 | 0.00 | 85 | 1025.3 |
| 20260506034330 | 7 | 358 | 1.6 | 6.4 | 0.00 | 0.00 | 0.00 | 84 | 1025.2 |
| 20260506033929 | 7 | 343 | 1.6 | 6.4 | 0.00 | 0.00 | 0.00 | 84 | 1025.2 |
| 20260506033529 | 8 | 326 | 1.6 | 8.0 | 0.00 | 0.00 | 0.00 | 84 | 1025.2 |
| 20260506033127 | 8 | 350 | 4.8 | 11.3 | 0.00 | 0.00 | 0.00 | 84 | 1025.0 |
| 20260506032726 | 8 | 329 | 8.0 | 11.3 | 0.00 | 0.00 | 0.00 | 84 | 1025.0 |
| 20260506032325 | 8 | 274 | 3.2 | 11.3 | 0.00 | 0.00 | 0.00 | 84 | 1024.9 |
| 20260506031924 | 8 | 292 | 3.2 | 16.1 | 0.00 | 0.00 | 0.00 | 84 | 1024.8 |
| 20260506031523 | 8 | 285 | 8.0 | 12.9 | 0.00 | 0.00 | 0.00 | 84 | 1024.7 |
| 20260506031122 | 8 | 6 | 8.0 | 14.5 | 0.00 | 0.00 | 0.00 | 83 | 1024.6 |
| 20260506030721 | 8 | 81 | 4.8 | 9.7 | 0.00 | 0.00 | 0.00 | 83 | 1024.5 |
| 20260506030320 | 8 | 284 | 4.8 | 8.0 | 0.00 | 0.00 | 0.00 | 83 | 1024.4 |
| 20260506025919 | 8 | 173 | 3.2 | 16.1 | 0.00 | 0.00 | 0.00 | 82 | 1024.4 |
| 20260506025518 | 8 | 29 | 16.1 | 16.1 | 0.00 | 0.00 | 0.00 | 82 | 1024.2 |
| 20260506025117 | 8 | 271 | 3.2 | 16.1 | 0.00 | 0.00 | 0.00 | 82 | 1024.2 |
| 20260506024717 | 8 | 327 | 4.8 | 16.1 | 0.00 | 0.00 | 0.00 | 82 | 1024.2 |
| 20260506024316 | 8 | 13 | 3.2 | 16.1 | 0.00 | 0.00 | 0.00 | 81 | 1024.2 |
| 20260506023915 | 9 | 318 | 8.0 | 16.1 | 0.00 | 0.00 | 0.00 | 80 | 1024.4 |
| 20260506023514 | 9 | 312 | 6.4 | 11.3 | 0.00 | 0.00 | 0.00 | 79 | 1024.3 |
| 20260506023113 | 9 | 21 | 11.3 | 11.3 | 0.00 | 0.00 | 0.00 | 79 | 1024.2 |
| 20260506022715 | 9 | 278 | 6.4 | 9.7 | 0.00 | 0.00 | 0.00 | 79 | 1024.1 |
| 20260506022712 | 9 | 278 | 6.4 | 9.7 | 0.00 | 0.00 | 0.00 | 79 | 1024.1 |
| 20260506022311 | 9 | 273 | 6.4 | 9.7 | 0.00 | 0.00 | 0.00 | 79 | 1024.0 |
| 20260506021910 | 10 | 253 | 3.2 | 12.9 | 0.00 | 0.00 | 0.00 | 78 | 1024.0 |
| 20260506021509 | 10 | 317 | 8.0 | 12.9 | 0.00 | 0.00 | 0.00 | 78 | 1024.0 |
| 20260506021108 | 10 | 309 | 6.4 | 16.1 | 0.00 | 0.00 | 0.00 | 77 | 1024.1 |
| 20260506020707 | 10 | 318 | 3.2 | 11.3 | 0.00 | 0.00 | 0.00 | 77 | 1024.2 |
| 20260506020306 | 10 | 355 | 4.8 | 9.7 | 0.00 | 0.00 | 0.00 | 76 | 1024.1 |
| 20260506015905 | 10 | 33 | 4.8 | 9.7 | 0.00 | 0.00 | 0.00 | 76 | 1024.1 |
| 20260506015505 | 11 | 266 | 4.8 | 11.3 | 0.00 | 0.00 | 0.00 | 76 | 1024.2 |
| 20260506015104 | 11 | 12 | 1.6 | 11.3 | 0.00 | 0.00 | 0.00 | 76 | 1024.2 |
| 20260506014703 | 11 | 261 | 9.7 | 12.9 | 0.00 | 0.00 | 0.00 | 76 | 1024.1 |
| 20260506014302 | 11 | 47 | 6.4 | 8.0 | 0.00 | 0.00 | 0.00 | 76 | 1024.1 |
| 20260506013901 | 11 | 41 | 4.8 | 6.4 | 0.00 | 0.00 | 0.00 | 76 | 1024.1 |
| 20260506013500 | 11 | 45 | 3.2 | 6.4 | 0.00 | 0.00 | 0.00 | 75 | 1024.0 |
| 20260506013059 | 11 | 137 | 3.2 | 8.0 | 0.00 | 0.00 | 0.00 | 75 | 1024.1 |
| 20260506012658 | 11 | 14 | 6.4 | 9.7 | 0.00 | 0.00 | 0.00 | 75 | 1024.0 |
| 20260506012413 | 11 | 53 | 3.2 | 9.7 | 0.00 | 0.00 | 0.00 | 75 | 1024.1 |
| 20260506012257 | 11 | 53 | 3.2 | 9.7 | 0.00 | 0.00 | 0.00 | 75 | 1024.1 |
| 20260506011856 | 11 | 325 | 6.4 | 8.0 | 0.00 | 0.00 | 0.00 | 75 | 1024.0 |
| 20260506011455 | 11 | 309 | 4.8 | 6.4 | 0.00 | 0.00 | 0.00 | 75 | 1024.0 |
| 20260506011054 | 11 | 256 | 3.2 | 6.4 | 0.00 | 0.00 | 0.00 | 75 | 1024.0 |
| 20260506010653 | 11 | 259 | 4.8 | 6.4 | 0.00 | 0.00 | 0.00 | 75 | 1024.1 |
| 20260506010252 | 11 | 323 | 6.4 | 8.0 | 0.00 | 0.00 | 0.00 | 75 | 1024.0 |
| 20260506005851 | 11 | 267 | 4.8 | 12.9 | 0.00 | 0.00 | 0.00 | 75 | 1024.1 |
| 20260506005451 | 11 | 322 | 4.8 | 9.7 | 0.00 | 0.00 | 0.00 | 75 | 1024.0 |
| 20260506005050 | 11 | 33 | 6.4 | 9.7 | 0.00 | 0.00 | 0.00 | 75 | 1023.9 |
| 20260506004649 | 11 | 317 | 8.0 | 12.9 | 0.00 | 0.00 | 0.00 | 75 | 1023.9 |
| 20260506004248 | 11 | 14 | 4.8 | 11.3 | 0.00 | 0.00 | 0.00 | 74 | 1024.0 |
| 20260506003847 | 11 | 318 | 9.7 | 11.3 | 0.00 | 0.00 | 0.00 | 74 | 1023.7 |
| 20260506003446 | 11 | 67 | 3.2 | 9.7 | 0.00 | 0.00 | 0.00 | 74 | 1023.9 |
| 20260506003045 | 11 | 39 | 3.2 | 6.4 | 0.00 | 0.00 | 0.00 | 74 | 1023.9 |
| 20260506002644 | 11 | 328 | 1.6 | 6.4 | 0.00 | 0.00 | 0.00 | 74 | 1024.0 |
| 20260506002243 | 11 | 171 | 3.2 | 9.7 | 0.00 | 0.00 | 0.00 | 74 | 1023.9 |
| 20260506001842 | 11 | 327 | 4.8 | 12.9 | 0.00 | 0.00 | 0.00 | 74 | 1023.9 |
| 20260506001441 | 11 | 304 | 3.2 | 9.7 | 0.00 | 0.00 | 0.00 | 74 | 1024.0 |
| 20260506001040 | 11 | 267 | 4.8 | 11.3 | 0.00 | 0.00 | 0.00 | 74 | 1023.8 |
| 20260506000639 | 11 | 180 | 3.2 | 17.7 | 0.00 | 0.00 | 0.00 | 75 | 1023.7 |
| 20260505235838 | 11 | 273 | 8.0 | 14.5 | 0.00 | 0.00 | 0.00 | 74 | 1023.6 |
| 20260505235437 | 11 | 237 | 4.8 | 14.5 | 0.00 | 0.00 | 0.00 | 74 | 1023.6 |
| 20260505235036 | 11 | 327 | 11.3 | 14.5 | 0.00 | 0.00 | 0.00 | 74 | 1023.6 |
| 20260505234635 | 11 | 320 | 3.2 | 14.5 | 0.00 | 0.00 | 0.00 | 74 | 1023.7 |
| 20260505234234 | 11 | 18 | 8.0 | 16.1 | 0.00 | 0.00 | 0.00 | 74 | 1023.6 |
| 20260505233833 | 11 | 352 | 4.8 | 16.1 | 0.00 | 0.00 | 0.00 | 74 | 1023.7 |
| 20260505233031 | 11 | 332 | 6.4 | 14.5 | 0.00 | 0.00 | 0.00 | 74 | 1023.6 |
| 20260505232630 | 11 | 319 | 4.8 | 12.9 | 0.00 | 0.00 | 0.00 | 73 | 1023.6 |
| 20260505232229 | 12 | 323 | 12.9 | 12.9 | 0.00 | 0.00 | 0.00 | 73 | 1023.6 |
| 20260505231828 | 12 | 17 | 6.4 | 9.7 | 0.00 | 0.00 | 0.00 | 73 | 1023.4 |
| 20260505231427 | 12 | 5 | 3.2 | 14.5 | 0.00 | 0.00 | 0.00 | 72 | 1023.5 |
| 20260505231026 | 12 | 56 | 4.8 | 9.7 | 0.00 | 0.00 | 0.00 | 72 | 1023.5 |
| 20260505230625 | 12 | 337 | 6.4 | 9.7 | 0.00 | 0.00 | 0.00 | 72 | 1023.7 |
| 20260505230225 | 13 | 273 | 4.8 | 12.9 | 0.00 | 0.00 | 0.00 | 72 | 1023.7 |
| 20260505225824 | 13 | 306 | 3.2 | 9.7 | 0.00 | 0.00 | 0.00 | 72 | 1023.6 |
| 20260505225423 | 13 | 133 | 3.2 | 16.1 | 0.00 | 0.00 | 0.00 | 72 | 1023.8 |
| 20260505225023 | 13 | 274 | 6.4 | 9.7 | 0.00 | 0.00 | 0.00 | 72 | 1023.8 |
| 20260505224621 | 13 | 27 | 6.4 | 8.0 | 0.00 | 0.00 | 0.00 | 73 | 1023.8 |
| 20260505224220 | 13 | 36 | 1.6 | 12.9 | 0.00 | 0.00 | 0.00 | 72 | 1023.8 |
| 20260505223819 | 13 | 352 | 1.6 | 11.3 | 0.00 | 0.00 | 0.00 | 72 | 1023.9 |
| 20260505223419 | 13 | 326 | 4.8 | 8.0 | 0.00 | 0.00 | 0.00 | 72 | 1023.8 |
| 20260505223018 | 13 | 5 | 1.6 | 9.7 | 0.00 | 0.00 | 0.00 | 72 | 1023.8 |
| 20260505221815 | 13 | 29 | 1.6 | 8.0 | 0.00 | 0.00 | 0.00 | 73 | 1024.0 |
| 20260505221414 | 13 | 38 | 6.4 | 9.7 | 0.00 | 0.00 | 0.00 | 74 | 1024.0 |
| 20260505221013 | 13 | 3 | 8.0 | 9.7 | 0.00 | 0.00 | 0.00 | 73 | 1023.9 |
| 20260505220613 | 12 | 6 | 6.4 | 6.4 | 0.00 | 0.00 | 0.00 | 74 | 1024.1 |
| 20260505220212 | 12 | 337 | 3.2 | 8.0 | 0.00 | 0.00 | 0.00 | 74 | 1024.0 |
| 20260505215811 | 12 | 11 | 3.2 | 8.0 | 0.00 | 0.00 | 0.00 | 74 | 1024.1 |
| 20260505215410 | 12 | 262 | 4.8 | 9.7 | 0.00 | 0.00 | 0.00 | 74 | 1024.1 |
| 20260505215009 | 12 | 319 | 3.2 | 6.4 | 0.00 | 0.00 | 0.00 | 74 | 1024.2 |
| 20260505214608 | 12 | 317 | 1.6 | 6.4 | 0.00 | 0.00 | 0.00 | 74 | 1024.3 |